Location: Buch
(49.7331°N, 12.1098°E)
Time: 05:45:49
(UTC+00:00)

Landsat 7 - Pass Details

Date: 28 September 2021
Orbit: 701 x 703 km, 98.0° (Epoch: 22 October)

Event Time Altitude Azimuth Distance (km) Brightness Sun altitude
Exits shadow 20:41:24 27° 284° (WNW) 1,355 5.7 -34.0°
Drops below altitude 10° 20:44:42 10° 326° (NW) 2,181 7.1 -34.4°
Sets 20:47:16 0° 338° (NNW) 3,104 8.1 -34.7°
